Showing default

FR 1, 1814

Orbit data source: Space-Track

FR 1, 1814 is a payload satellite owned by CNES (FR) in LEO that was launched on Mon, 06 Dec 1965 UTC via an SCOUT X-4 launch vehicle from the Air Force Western Test Range (AFWTR). Payload-class satellites include a variety of spacecraft equipped with specific instruments for various scientific and technological missions. These include communications satellites like Starlink; space stations such as the ISS; scientific satellites like the Hubble; Earth observation satellites from companies like Planet Labs, Umbra, and HawkEye 360; GPS; miniature CubeSats for education and research; and military/defense satellites.

Loading next visibility...
Identifier
1814, 1965-101A
Orbit
LEO
Country
Flag of FRFR
Related business
Manufacturer
Nord
Mission
Civil Science
Bus & Motor
FR, Unknown motor
Mass
62 kg wet, 62 kg dry
Launch date (UTC)
1965-12-06 (60 years ago)
Launch vehicle
SCOUT X-4
Launch site
Air Force Western Test Range (AFWTR)
Object type
Payload
Rocket body
Debris
Shape & HBR
Poly + 4 Ant, 2.1 m
Radar Cross Section
1.303 m², Medium (>0.1 m² and < 1m²)

Expand to show TLE details & history
Last TLE update: 14 hours ago

TLE from 14 hours ago
0 FR 1
1 01814U 65101A   25259.61367508  .00000779  00000-0  12969-3 0  9999
2 01814  75.8633 102.9169 0004616  65.6188 294.5474 14.70977503 15865
Epoch: 2025-09-16T14:43Z
TLE epoch observation values (Epoch: 2025-09-16T14:43:41.526Z)
Latitude
-0.00014°
Longitude
-113.80762°
Altitude
659.355 km
Speed
7.529 km/s
True Right ascension
06h 51m 40s
True Declination
0° 00' 00"
Sunlit
Object was in daylight at epoch
Visualization orbit readout
Latitude
Unknown
Longitude
Unknown
Altitude
Unknown
Speed
Unknown
Apparent Right ascension
Unknown
Apparent Declination
Unknown
Sunlit
N/A
Visualization observer readout
Local Sidereal Time
21:34:58
Azimuth
Unknown
Elevation
Unknown
Doppler factor
Unknown
Orbital elements
Apogee altitude
658.631 km
Perigee altitude
652.138 km
Semi-major axis
7,033.522 km
Eccentricity
0.00046
Inclination
75.8633°
RAAN
102.9169°
Arg. of periapsis
65.6188°
True anomaly
294.49927°
Mean anomaly
294.5474°
Eccentric anomaly
294.52334°
Mean motion
3.67946 °/min
Orbital period
97.84 mins
BSTAR
0.00012969
Loading maneuver chart data...
Computing Atmospheric mass density...
Loading historical data...
Loading historical data...
Loading historical data...
Loading historical data...
Loading historical data...
Loading historical data...
Loading historical data...

Documentation

Showing up to 5 results
|